Location: Mount Hamilton
(37.3433°N, 121.6347°W)
Time: 09:35:27
(UTC-08:00)

Hubble Space Telescope - Visible Passes

Search period start: 17 November 2017 00:00
Search period end: 27 November 2017 00:00
Orbit: 537 x 541 km, 28.5° (Epoch: 16 November)

Date Brightness Start Highest point End Pass type
(mag) Time Alt. Az. Time Alt. Az. Time Alt. Az.
17 Nov 3.3 04:48:53 11° S 04:50:28 13° SSE 04:52:23 10° SE visible
18 Nov 3.1 04:39:35 15° S 04:40:08 15° SSE 04:42:33 10° SE visible
18 Nov 2.8 06:17:27 10° SW 06:20:46 23° S 06:24:04 10° ESE visible
19 Nov 3.1 04:30:12 17° SSE 04:30:12 17° SSE 04:32:33 10° SE visible
19 Nov 2.7 06:07:08 10° SW 06:10:28 24° S 06:13:48 10° SE visible
20 Nov 3.2 04:20:44 17° SE 04:20:44 17° SE 04:22:28 10° ESE visible
20 Nov 2.6 05:56:51 10° SW 06:00:10 23° S 06:03:29 10° SE visible
21 Nov 3.5 04:11:14 15° SE 04:11:14 15° SE 04:12:19 10° ESE visible
21 Nov 2.6 05:46:36 10° WSW 05:49:52 23° S 05:53:08 10° SE visible
22 Nov 3.8 04:01:41 12° SE 04:01:41 12° SE 04:02:08 10° ESE visible
22 Nov 2.6 05:37:03 13° SW 05:39:35 21° S 05:42:46 10° SE visible
23 Nov 2.7 05:27:28 15° SW 05:29:16 20° S 05:32:19 10° SE visible
24 Nov 2.7 05:17:54 17° SSW 05:18:57 18° SSW 05:21:48 10° SSE visible
25 Nov 2.8 05:08:19 16° SSW 05:08:38 16° SSW 05:11:13 10° SSE visible
26 Nov 3.1 04:58:45 14° S 04:58:45 14° S 05:00:29 10° SSE visible
